This is the latest recevied weather packets stored in our database for station/object CA3SQH-10. If no packets are shown the sender has not sent any weather packets the latest 10 day(s).
| Time | Temp. | Humidity | Pressure | Rain* | Wind** | Luminosity | Snow |
|---|---|---|---|---|---|---|---|
| 1777673641 | 17.22° C | 67% | 942.2 hPa | - | - | - | - |
| 1777672741 | 17.22° C | 66% | 942.3 hPa | - | - | - | - |
| 1777671841 | 17.78° C | 66% | 942.2 hPa | - | - | - | - |
| 1777670941 | 18.33° C | 65% | 942.2 hPa | - | - | - | - |
| 1777670040 | 17.78° C | 65% | 942.3 hPa | - | - | - | - |
| 1777669140 | 18.33° C | 63% | 942.5 hPa | - | - | - | - |
| 1777668240 | 19.44° C | 61% | 942.5 hPa | - | - | - | - |
| 1777667339 | 19.44° C | 60% | 942.5 hPa | - | - | - | - |
| 1777666439 | 20° C | 59% | 942.4 hPa | - | - | - | - |
| 1777665539 | 20.56° C | 57% | 942.3 hPa | - | - | - | - |
| 1777664639 | 20.56° C | 58% | 942.2 hPa | - | - | - | - |
| 1777663739 | 20° C | 59% | 942.2 hPa | - | - | - | - |
| 1777662838 | 18.33° C | 64% | 942.2 hPa | - | - | - | - |
| 1777661938 | 18.33° C | 64% | 942.2 hPa | - | - | - | - |
| 1777661038 | 17.78° C | 66% | 942 hPa | - | - | - | - |
| 1777660138 | 17.78° C | 66% | 941.9 hPa | - | - | - | - |
| 1777659238 | 17.78° C | 65% | 942 hPa | - | - | - | - |
| 1777658337 | 18.33° C | 63% | 941.9 hPa | - | - | - | - |
| 1777657442 | 18.33° C | 63% | 941.8 hPa | - | - | - | - |
| 1777656542 | 18.33° C | 63% | 941.7 hPa | - | - | - | - |
| 1777655642 | 17.78° C | 65% | 941.5 hPa | - | - | - | - |
| 1777654741 | 17.78° C | 65% | 941.8 hPa | - | - | - | - |
| 1777653841 | 17.78° C | 66% | 942.2 hPa | - | - | - | - |
| 1777652941 | 17.22° C | 67% | 942.4 hPa | - | - | - | - |
| 1777652041 | 16.67° C | 70% | 942.6 hPa | - | - | - | - |
* Rain since midnight (hover to see other rain measurements)
** Current wind speed in m/s (hover to see current wind gust speed)